Newton, KS

2:53 AM CDT on April 28, 2017 (GMT -0500)
Newton City County

Weather History for KEWK - January, 2014

Change the Weather History Date:

Saturday, January 11, 2014

  Actual Average Record
Temperature  
Mean Temperature 39 °F -  
Max Temperature 50 °F 38 °F 62 °F (2007)
Min Temperature 28 °F 21 °F 0 °F (1997)
Degree Days  
Heating Degree Days 26    
Moisture  
Dew Point 27 °F    
Average Humidity 65    
Maximum Humidity 87    
Minimum Humidity 43    
Precipitation  
Precipitation 0.00 in - - ()
Sea Level Pressure  
Sea Level Pressure 29.89 in    
Wind  
Wind Speed 11 mph (West)    
Max Wind Speed 21 mph    
Max Gust Speed 28 mph    
Visibility 10 miles    
Events      
Averages and records for this station are not official NWS values.
T = Trace of Precipitation, MM = Missing Value Source: NWS Daily Summary

Daily Weather History Graph

Daily Weather History Graph

Search for Another Location

Airport or City:

Trip Planner

Search our weather history database for the weather conditions in past years. The results will help you decide how hot, cold, wet, or windy it might be!

Date:

Astronomy

Jan. 11, 2014 Rise Set
Actual Time 7:45 AM CST 5:29 PM CST
Civil Twilight 7:16 AM CST 5:58 PM CST
Nautical Twilight 6:43 AM CST 6:31 PM CST
Astronomical Twilight 6:11 AM CST 7:02 PM CST
Moon 2:13 PM CST (1/11) 3:51 AM CST (1/11)
Length of Visible Light 10h 42m
Length of Day
9h 44m
Waxing Gibbous, 83% of the Moon is Illuminated
Jan 11
Waxing Gibbous
Jan 15
Full
Jan 23
Last Quarter
Jan 30
New
Feb 6
First Quarter

Hourly Weather History & Observations

Time (CST) Temp. Windchill Dew Point Humidity Pressure Visibility Wind Dir Wind Speed Gust Speed Precip Events Conditions
12:15 AM 33.8 °F 26.4 °F 28.4 °F 81% 29.73 in 10.0 mi West 9.2 mph - N/A   Clear
12:35 AM 33.8 °F 26.4 °F 28.4 °F 81% 29.74 in 10.0 mi WNW 9.2 mph - N/A   Clear
12:55 AM 33.8 °F 25.3 °F 28.4 °F 81% 29.75 in 10.0 mi WNW 11.5 mph - N/A   Clear
1:15 AM 33.8 °F 26.4 °F 28.4 °F 81% 29.75 in 10.0 mi WNW 9.2 mph - N/A   Clear
1:35 AM 33.8 °F 27.7 °F 28.4 °F 81% 29.76 in 10.0 mi WNW 6.9 mph - N/A   Clear
1:55 AM 32.0 °F 24.8 °F 28.4 °F 87% 29.77 in 10.0 mi WNW 8.1 mph - N/A   Clear
2:15 AM 33.8 °F 25.8 °F 28.4 °F 81% 29.78 in 10.0 mi WNW 10.4 mph - N/A   Mostly Cloudy
2:35 AM 33.8 °F 25.3 °F 28.4 °F 81% 29.79 in 10.0 mi WNW 11.5 mph - N/A   Scattered Clouds
2:55 AM 32.0 °F 24.2 °F 26.6 °F 80% 29.80 in 10.0 mi WNW 9.2 mph - N/A   Clear
3:15 AM 32.0 °F 24.8 °F 26.6 °F 80% 29.80 in 10.0 mi WNW 8.1 mph - N/A   Clear
3:35 AM 32.0 °F 24.8 °F 26.6 °F 80% 29.80 in 10.0 mi West 8.1 mph - N/A   Clear
3:55 AM 32.0 °F 24.2 °F 26.6 °F 80% 29.80 in 10.0 mi West 9.2 mph - N/A   Clear
4:15 AM 32.0 °F 23.6 °F 26.6 °F 80% 29.81 in 10.0 mi WNW 10.4 mph - N/A   Clear
4:35 AM 30.2 °F 21.9 °F 26.6 °F 86% 29.81 in 10.0 mi West 9.2 mph - N/A   Clear
4:55 AM 30.2 °F 21.9 °F 26.6 °F 86% 29.82 in 10.0 mi West 9.2 mph - N/A   Clear
5:15 AM 30.2 °F 21.9 °F 24.8 °F 80% 29.82 in 10.0 mi West 9.2 mph - N/A   Clear
5:35 AM 30.2 °F 21.3 °F 24.8 °F 80% 29.83 in 10.0 mi West 10.4 mph - N/A   Clear
5:55 AM 30.2 °F 21.3 °F 24.8 °F 80% 29.84 in 10.0 mi WNW 10.4 mph - N/A   Clear
6:15 AM 30.2 °F 21.3 °F 23.0 °F 75% 29.84 in 10.0 mi West 10.4 mph - N/A   Clear
6:35 AM 30.2 °F 21.9 °F 23.0 °F 75% 29.85 in 10.0 mi WNW 9.2 mph - N/A   Clear
6:55 AM 28.4 °F 19.7 °F 21.2 °F 74% 29.85 in 10.0 mi WNW 9.2 mph - N/A   Clear
7:15 AM 28.4 °F 20.4 °F 21.2 °F 74% 29.86 in 10.0 mi WNW 8.1 mph - N/A   Clear
7:35 AM 28.4 °F 19.1 °F 21.2 °F 74% 29.86 in 10.0 mi WNW 10.4 mph - N/A   Clear
7:55 AM 30.2 °F 21.3 °F 21.2 °F 69% 29.87 in 10.0 mi WNW 10.4 mph - N/A   Clear
8:15 AM 30.2 °F 20.8 °F 23.0 °F 75% 29.88 in 10.0 mi WNW 11.5 mph - N/A   Clear
8:35 AM 30.2 °F 21.9 °F 24.8 °F 80% 29.88 in 10.0 mi WNW 9.2 mph - N/A   Clear
8:55 AM 32.0 °F 23.6 °F 24.8 °F 75% 29.89 in 10.0 mi WNW 10.4 mph - N/A   Clear
9:15 AM 35.6 °F 27.1 °F 26.6 °F 70% 29.91 in 10.0 mi WNW 12.7 mph - N/A   Clear
9:35 AM 35.6 °F 27.5 °F 26.6 °F 70% 29.92 in 10.0 mi WNW 11.5 mph - N/A   Clear
9:55 AM 37.4 °F 28.9 °F 28.4 °F 70% 29.94 in 10.0 mi WNW 13.8 mph - N/A   Clear
10:15 AM 39.2 °F 30.5 °F 30.2 °F 70% 29.95 in 10.0 mi NW 16.1 mph 20.7 mph N/A   Clear
10:35 AM 41.0 °F 32.8 °F 30.2 °F 65% 29.95 in 10.0 mi NW 16.1 mph - N/A   Clear
10:55 AM 42.8 °F 34.8 °F 30.2 °F 61% 29.96 in 10.0 mi NW 17.3 mph - N/A   Clear
11:15 AM 42.8 °F 35.1 °F 30.2 °F 61% 29.96 in 10.0 mi NW 16.1 mph 20.7 mph N/A   Clear
11:35 AM 44.6 °F 37.2 °F 30.2 °F 57% 29.96 in 10.0 mi NW 17.3 mph 23.0 mph N/A   Clear
11:55 AM 44.6 °F 37.2 °F 32.0 °F 61% 29.96 in 10.0 mi WNW 17.3 mph - N/A   Clear
12:15 PM 44.6 °F 36.9 °F 32.0 °F 61% 29.95 in 10.0 mi NW 18.4 mph 23.0 mph N/A   Clear
12:35 PM 46.4 °F 38.7 °F 30.2 °F 53% 29.95 in 10.0 mi NW 20.7 mph 27.6 mph N/A   Clear
12:55 PM 46.4 °F 39.2 °F 30.2 °F 53% 29.94 in 10.0 mi NNW 18.4 mph - N/A   Clear
1:15 PM 48.2 °F - 30.2 °F 50% 29.94 in 10.0 mi NW 20.7 mph 25.3 mph N/A   Clear
1:35 PM 48.2 °F - 28.4 °F 46% 29.93 in 10.0 mi NW 19.6 mph 25.3 mph N/A   Clear
1:55 PM 48.2 °F - 28.4 °F 46% 29.94 in 10.0 mi NW 20.7 mph 26.5 mph N/A   Clear
2:15 PM 48.2 °F - 28.4 °F 46% 29.94 in 10.0 mi NW 20.7 mph 26.5 mph N/A   Clear
2:35 PM 50.0 °F - 28.4 °F 43% 29.94 in 10.0 mi WNW 15.0 mph - N/A   Clear
2:55 PM 50.0 °F - 28.4 °F 43% 29.94 in 10.0 mi WNW 15.0 mph 21.9 mph N/A   Clear
3:15 PM 50.0 °F - 28.4 °F 43% 29.94 in 10.0 mi WNW 16.1 mph - N/A   Clear
3:35 PM 50.0 °F - 28.4 °F 43% 29.95 in 10.0 mi WNW 13.8 mph 18.4 mph N/A   Clear
3:55 PM 50.0 °F - 28.4 °F 43% 29.95 in 10.0 mi West 15.0 mph - N/A   Clear
4:15 PM 50.0 °F - 28.4 °F 43% 29.95 in 10.0 mi WNW 11.5 mph - N/A   Clear
4:35 PM 48.2 °F - 28.4 °F 46% 29.95 in 10.0 mi West 6.9 mph - N/A   Clear
4:55 PM 46.4 °F 44.3 °F 28.4 °F 50% 29.95 in 10.0 mi West 4.6 mph - N/A   Clear
5:15 PM 46.4 °F 44.3 °F 26.6 °F 46% 29.95 in 10.0 mi West 4.6 mph - N/A   Clear
5:35 PM 46.4 °F 45.2 °F 26.6 °F 46% 29.95 in 10.0 mi WSW 3.5 mph - N/A   Clear
5:55 PM 41.0 °F 39.0 °F 26.6 °F 57% 29.95 in 10.0 mi SSW 3.5 mph - N/A   Clear
6:15 PM 39.2 °F 34.2 °F 26.6 °F 61% 29.94 in 10.0 mi South 6.9 mph - N/A   Clear
6:35 PM 39.2 °F 35.0 °F 26.6 °F 61% 29.93 in 10.0 mi South 5.8 mph - N/A   Clear
6:55 PM 37.4 °F 32.1 °F 26.6 °F 65% 29.93 in 10.0 mi South 6.9 mph - N/A   Clear
7:15 PM 37.4 °F 32.1 °F 26.6 °F 65% 29.93 in 10.0 mi South 6.9 mph - N/A   Clear
7:35 PM 37.4 °F 31.4 °F 26.6 °F 65% 29.93 in 10.0 mi South 8.1 mph - N/A   Clear
7:55 PM 37.4 °F 30.3 °F 26.6 °F 65% 29.93 in 10.0 mi South 10.4 mph - N/A   Clear
8:15 PM 37.4 °F 30.8 °F 26.6 °F 65% 29.93 in 10.0 mi South 9.2 mph - N/A   Clear
8:35 PM 37.4 °F 30.8 °F 26.6 °F 65% 29.93 in 10.0 mi South 9.2 mph - N/A   Clear
8:55 PM 37.4 °F 30.8 °F 26.6 °F 65% 29.93 in 10.0 mi South 9.2 mph - N/A   Clear
9:15 PM 37.4 °F 30.3 °F 26.6 °F 65% 29.92 in 10.0 mi South 10.4 mph - N/A   Clear
9:35 PM 37.4 °F 30.8 °F 26.6 °F 65% 29.91 in 10.0 mi South 9.2 mph - N/A   Clear
9:55 PM 37.4 °F 30.3 °F 24.8 °F 60% 29.91 in 10.0 mi South 10.4 mph - N/A   Clear
10:15 PM 37.4 °F 30.3 °F 24.8 °F 60% 29.90 in 10.0 mi South 10.4 mph - N/A   Clear
10:35 PM 37.4 °F 29.8 °F 24.8 °F 60% 29.90 in 10.0 mi South 11.5 mph - N/A   Clear
10:55 PM 37.4 °F 29.3 °F 26.6 °F 65% 29.88 in 10.0 mi South 12.7 mph - N/A   Clear
11:15 PM 37.4 °F 29.8 °F 24.8 °F 60% 29.88 in 10.0 mi South 11.5 mph - N/A   Clear
11:35 PM 37.4 °F 29.8 °F 24.8 °F 60% 29.87 in 10.0 mi South 11.5 mph - N/A   Clear
11:55 PM 37.4 °F 30.3 °F 24.8 °F 60% 29.87 in 10.0 mi South 10.4 mph - N/A   Clear